Regional Weather Roundup
Issued by NWS

Home | Current Version | Previous Version | Text Only | Print | Product List | Glossary Off
Versions: 1 2 3 4 5 6 7 8 9 10 11 12 13 14 15 16 17 18 19 20 21 22 23 24 25 26 27 28 29 30 31 32 33 34 35 36 37 38 39 40 41 42 43 44 45 46 47 48 49

000
ASUS43 KDMX 191007
RWRIA

WEATHER ROUNDUP FOR IOWA
NATIONAL WEATHER SERVICE DES MOINES IA
500 AM CDT FRI SEP 19 2014

NOTE: "FAIR" INDICATES FEW OR NO CLOUDS BELOW 12,000 FEET WITH NO
SIGNIFICANT WEATHER AND/OR OBSTRUCTIONS TO VISIBILITY.

* - THESE STATIONS ARE NOT NWS STATIONS...THUS NOT UNDER NWS
QUALITY CONTROL.  THEY ALSO DO NOT REPORT WEATHER SUCH
AS PRECIPITATION OR FOG.

IAZ001>003-012>014-020>022-031>034-043>046-191100-
   NORTHWEST IOWA

CITY           SKY/WX    TMP DP  RH WIND       PRES   REMARKS
CARROLL *      MOCLDY    57  55  94 SE8       29.96F
CHEROKEE *     CLOUDY    61  59  94 S12G17    29.92S
DENISON *      CLOUDY    61  61 100 S10G16    29.93S
LE MARS *        N/A     63  59  88 S18       29.89F
ORANGE CITY *  CLOUDY    63  57  82 S15G21    29.89S HAZE
SHELDON *      CLOUDY    59  59 100 S13G22    29.88F
SIOUX CITY     CLOUDY    61  59  93 S8        29.89F
SPENCER        CLOUDY    59  56  89 S13       29.92F
STORM LAKE *   CLOUDY    59  59 100 S12G17    29.94S FOG
$$

IAZ055>058-069>071-079>083-090>094-191100-
   SOUTHWEST IOWA

CITY           SKY/WX    TMP DP  RH WIND       PRES   REMARKS
ATLANTIC *     MOCLDY    59  59 100 S9        29.97F
AUDUBON *      CLEAR     57  54  88 S7        29.98F HAZE
CLARINDA *     PTCLDY    61  59  94 S5        30.01S FOG
COUNCIL BLFS * CLOUDY    61  61 100 S10       29.95F FOG
CRESTON *      CLEAR     57  55  94 SE7       30.01F FOG
HARLAN  *      CLOUDY    61  61 100 S10       30.00S FOG
LAMONI         CLEAR     56  54  93 S5        30.02F
SHENANDOAH *     N/A     61  61 100 S9        29.98S FOG
$$

IAZ047>049-059>061-072>074-084-191100-
   CENTRAL IOWA

CITY           SKY/WX    TMP DP  RH WIND       PRES   REMARKS
AMES           PTCLDY    52  51  97 SE7       30.02F FOG
ANKENY *       PTCLDY    55  54  94 S5        30.02F
CHARITON *     MOCLDY    54  52  94 SE6       30.03F
DES MOINES     PTCLDY    58  53  84 SE9       30.01F
GRINNELL*      CLEAR     54  50  87 SE7       30.06S
KNOXVILLE *    PTCLDY    54  52  94 SE6       30.03S
MARSHALLTOWN   PTCLDY    53  50  89 S7        30.03F
PELLA *        CLEAR     54  52  94 SE5       30.05F
PERRY *          N/A     55  55 100 SE9       29.99F FOG
$$

IAZ004>006-015-016-023>025-035-036-191100-
   NORTH CENTRAL IOWA

CITY           SKY/WX    TMP DP  RH WIND       PRES   REMARKS
ALGONA *       CLEAR     55  54  94 S13G18    29.96F
CLARION *        N/A     55  54  94 S7        30.00S
ESTHERVILLE    PTCLDY    57  55  93 S13       29.93F
FORT DODGE *   CLEAR     59  54  82 S9        29.99F
MASON CITY     CLEAR     53  51  93 S9        30.01F
FOREST CITY *  CLEAR     54  54 100 S8        29.99S
IOWA FALLS *     N/A     54  50  87 SE7       30.03F
$$

IAZ007>011-017>019-026>030-037>042-050>054-066-191100-
   NORTHEAST IOWA

CITY           SKY/WX    TMP DP  RH WIND       PRES   REMARKS
CEDAR RAPIDS   CLEAR     52  50  93 SE5       30.06F
CHARLES CITY * MOCLDY    54  50  87 SE9       30.04F
CLINTON *      CLOUDY    54  52  94 SE9       30.13F
DECORAH *      CLEAR     52  52 100 S8        30.05S FOG
DUBUQUE        CLEAR     52  51  97 SE13G26   30.09F FOG
MONTICELLO *   MOCLDY    54  54 100 SE8G15    30.08F FOG
OELWEIN *      CLEAR     52  50  93 SE9       30.07S FOG
WATERLOO       CLEAR     54  49  83 SE12      30.04F
$$

IAZ064-065-067-068-078-191100-
   EAST CENTRAL IOWA

CITY           SKY/WX    TMP DP  RH WIND       PRES   REMARKS
DAVENPORT      CLEAR     52  50  93 SE7       30.10F FOG
IOWA CITY      CLEAR     50  49  96 SE3       30.08F
MT. PLEASANT * CLEAR     52  48  87 SE5       30.08S
MUSCATINE *    CLEAR     48  46  93 CALM      30.09S
QUAD CITIES    CLEAR     48  47  96 E5        30.10S FOG
$$

IAZ062-063-075>077-085>089-095>099-191100-
   SOUTHEAST IOWA

CITY           SKY/WX    TMP DP  RH WIND       PRES   REMARKS
BURLINGTON     CLEAR     53  48  83 SE5       30.08S
FAIRFIELD *    CLEAR     50  48  93 SE7       30.07S
FORT MADISON * CLEAR     54  50  87 SE6       30.09F
KEOKUK *       CLEAR     52  50  93 E7        30.07S
OSKALOOSA *      N/A     50  50 100 SE6       30.06S
CENTERVILLE *  CLEAR     54  54 100 SE5       30.05F
OTTUMWA        CLEAR     52  49  89 SE6       30.05S
WASHINGTON *   CLEAR     48  48 100 SE6       30.08S
$$

ABBREVIATIONS USED IN REMARKS
   TC - TEMPERATURES IN CELSIUS
  WCI - WIND CHILL INDEX
   HX - HEAT INDEX
  VSB - VISIBILITY
$$



USA.gov is the U.S. government's official web portal to all federal, state and local government web resources and services.